Theta_e
322 323 324 325 326 328 328 328 328 329 329 328 327 327 325 324 324 324 325 326 326 324 322 322 323 324 324 325 325 325 325 325 325 325 325 325 325 324 324 324 324 324
322 322 323 324 326 327 328 328 328 328 328 329 328 327 327 327 327 327 327 327 327 325 324 325 325 325 325 325 325 325 325 325 325 325 325 325 325 324 324 324 324 324
322 323 323 324 325 327 328 328 328 328 328 328 327 327 327 327 327 327 327 327 328 327 326 326 327 326 326 326 326 326 325 324 324 324 325 325 325 324 324 324 324 323
318 319 321 322 324 326 326 327 327 327 328 327 326 327 328 327 326 326 327 327 328 328 327 326 327 326 327 326 326 326 325 324 324 324 324 324 324 324 324 324 324 323
313 313 315 317 320 322 324 325 324 324 326 327 326 327 328 328 326 326 327 326 326 327 326 326 327 327 327 327 327 327 326 325 324 324 324 323 323 323 324 324 324 324
311 312 312 313 314 316 320 323 323 322 323 325 326 326 327 328 327 326 326 326 326 327 326 327 328 329 329 328 328 328 326 324 324 324 323 323 322 322 323 323 324 323
310 311 312 312 312 312 314 317 319 319 318 320 323 324 326 327 327 326 325 325 325 326 326 328 330 330 330 329 329 329 326 324 324 324 324 323 323 323 323 323 323 323
307 309 311 312 312 313 312 311 314 315 316 318 319 319 322 325 325 325 326 325 325 326 328 330 330 330 330 330 330 329 327 325 324 324 324 324 323 323 323 323 323 323
305 307 309 311 312 313 314 313 313 313 315 318 318 317 320 322 321 323 326 327 328 329 330 330 330 330 331 331 331 330 328 325 324 323 324 324 324 324 324 324 324 323
304 305 306 308 310 312 313 314 315 314 314 316 316 317 319 320 320 321 324 326 328 328 329 329 329 330 331 331 331 330 328 325 324 324 324 325 324 324 324 324 324 323
303 304 304 305 307 309 311 313 314 316 315 315 315 315 317 318 319 321 322 324 325 326 327 328 329 330 331 331 331 331 328 325 324 324 324 325 325 324 324 324 324 324
302 303 304 304 305 306 307 309 311 314 316 316 316 316 315 316 318 319 321 322 323 324 325 326 328 330 331 331 331 329 326 324 324 324 324 324 324 324 325 325 324 324
299 301 302 303 304 305 305 307 308 311 314 316 317 317 316 316 317 318 320 321 322 323 324 325 327 329 330 330 329 326 324 323 323 323 322 322 323 324 325 325 324 324
297 298 300 302 303 304 304 306 307 308 310 314 316 318 317 317 317 318 319 320 321 322 323 324 326 327 328 328 326 324 322 322 321 320 321 321 322 324 325 325 324 323
295 297 298 300 302 303 304 304 305 307 308 310 313 316 317 318 318 318 318 319 320 320 321 322 324 325 325 325 324 322 321 320 320 320 321 322 323 324 324 324 322 321
294 295 296 298 300 302 303 304 304 305 306 308 310 312 315 317 318 318 318 318 319 320 320 321 322 322 323 322 322 321 321 320 320 321 323 324 324 324 323 322 321 320
292 293 294 296 297 299 301 303 304 304 305 306 307 309 312 314 316 318 318 319 319 319 320 320 321 321 321 321 321 320 321 321 322 323 323 323 323 323 322 321 320 320
291 292 293 294 296 297 299 301 303 303 304 305 306 307 309 311 314 316 317 318 318 319 319 320 320 320 320 320 320 321 322 322 323 323 323 323 322 322 321 320 320 320
290 290 291 293 294 295 297 299 301 303 303 304 305 305 307 309 311 313 315 316 317 318 319 320 320 320 320 321 321 322 322 322 322 322 321 321 321 321 321 321 321 321
289 289 290 291 292 294 295 297 299 302 303 303 304 305 305 307 309 310 312 314 315 317 318 319 320 321 321 321 321 321 321 320 320 320 319 320 320 320 320 321 321 321
288 289 289 290 291 292 293 295 297 299 302 303 303 304 304 305 306 308 310 312 314 315 316 318 319 320 320 320 319 318 318 318 318 319 319 319 320 320 321 321 321 321
288 288 289 289 290 290 291 293 294 297 299 302 303 303 304 304 305 306 308 310 312 314 315 316 317 318 318 318 317 316 316 317 318 319 319 320 320 321 321 321 321 320
287 288 288 288 289 289 290 291 292 294 296 299 302 303 303 304 304 305 306 308 310 312 314 315 316 316 316 316 316 315 316 317 318 319 320 321 321 321 321 321 320 318
286 287 287 288 288 288 289 290 291 292 294 296 299 302 303 303 303 304 305 307 308 311 313 315 317 317 318 318 318 317 318 319 320 321 322 322 322 322 321 319 316 313
286 286 287 287 287 288 288 289 290 291 292 294 297 300 302 303 303 303 304 306 307 309 311 314 316 318 319 320 320 321 321 322 323 323 323 322 321 319 317 314 312 310
286 286 286 286 287 287 288 288 289 290 291 292 294 297 300 302 303 303 304 305 306 307 309 312 314 316 318 319 320 321 322 322 323 323 322 319 316 314 311 310 309 308
Wind_Speed
30 31 31 33 35 35 36 37 38 39 38 36 35 34 33 35 35 36 37 35 35 37 38 36 34 33 32 31 30 29 28 27 27 26 26 26 26 26 26 26 25 26
30 30 30 32 35 36 36 37 39 40 40 38 37 36 35 34 34 35 36 35 36 38 39 38 35 34 33 32 30 30 28 28 28 27 27 28 27 28 29 28 28 28
34 32 32 32 34 37 37 37 39 40 40 39 38 38 38 36 35 36 35 36 37 38 39 38 34 32 34 33 31 31 29 29 29 28 28 29 29 30 30 30 30 31
29 30 30 31 33 35 35 35 37 38 39 39 38 38 38 38 38 38 37 37 37 38 40 40 36 34 35 35 34 32 31 30 30 30 30 30 30 31 32 32 33 33
24 25 25 27 30 32 33 33 35 37 39 40 40 37 37 39 40 40 39 38 35 37 42 44 42 39 38 38 37 35 32 32 32 32 33 33 32 33 34 35 35 36
21 24 25 26 28 30 32 34 36 37 38 41 41 38 37 40 42 42 41 40 37 38 43 45 44 41 40 39 39 36 34 34 34 34 35 35 35 35 36 37 38 38
16 20 24 27 28 30 30 32 35 36 37 39 40 39 39 41 44 45 44 41 39 42 46 46 43 40 39 39 39 38 36 36 36 36 37 38 37 37 38 38 38 38
16 16 18 23 28 31 32 33 35 36 36 38 39 39 40 40 42 45 45 43 43 46 50 48 43 40 38 38 39 39 38 39 38 38 40 40 40 40 39 38 38 38
20 17 16 17 22 27 31 34 36 37 36 37 38 39 40 40 40 42 43 44 46 49 50 47 42 39 37 38 40 40 40 41 41 41 41 42 42 41 40 38 38 38
23 21 19 17 18 21 25 30 34 37 37 38 39 39 39 40 40 40 41 44 47 48 48 45 40 38 37 39 40 41 41 41 42 43 43 43 43 42 39 38 38 38
26 25 23 21 19 19 21 24 28 33 36 37 39 40 40 40 40 40 41 43 45 45 45 43 40 38 38 39 41 42 42 42 42 43 43 43 43 42 40 39 39 38
30 28 27 26 24 22 21 22 23 27 31 34 37 39 41 41 41 41 41 42 43 44 44 43 41 40 39 39 40 41 41 41 42 42 42 42 42 41 40 39 38 38
33 32 30 28 28 27 24 22 22 23 26 30 33 36 40 42 41 41 41 41 42 43 43 42 42 41 40 40 40 41 41 42 42 42 42 42 42 42 40 38 37 36
36 34 33 30 29 28 27 25 23 22 22 25 28 32 37 40 40 40 40 41 42 43 43 42 42 42 41 41 41 41 41 42 42 42 43 43 42 41 39 37 36 36
38 37 35 33 31 29 28 28 26 24 22 23 25 28 32 35 37 38 39 41 43 43 42 42 42 42 42 42 41 41 41 42 42 42 42 41 40 38 37 37 37 37
40 39 37 36 34 32 30 29 28 27 25 23 23 25 28 30 33 35 37 40 42 43 42 42 42 42 42 42 41 41 41 41 41 40 40 39 38 37 38 38 38 38
42 40 39 37 36 34 32 31 30 29 28 26 24 23 24 27 29 32 35 37 39 40 41 41 41 41 41 40 40 40 40 40 39 38 38 38 38 39 40 39 39 38
43 42 41 39 37 36 35 33 31 30 30 28 26 24 23 24 26 29 31 32 34 36 38 39 39 40 39 39 39 38 38 38 38 38 38 39 39 39 39 39 38 37
43 43 43 41 39 37 36 35 33 31 31 30 28 26 25 24 24 26 28 29 30 33 35 36 38 38 38 38 38 37 36 37 38 39 39 39 39 39 38 38 38 37
43 43 43 43 41 39 37 36 35 33 32 31 30 29 27 26 25 25 26 28 29 31 33 35 36 37 37 36 36 36 37 37 38 39 39 38 38 38 38 38 37 36
45 44 44 44 43 42 39 37 36 35 34 32 31 31 30 28 27 26 26 27 28 30 32 35 36 37 36 35 35 35 36 37 38 39 39 38 39 39 39 38 37 36
46 46 46 45 45 44 42 39 36 35 35 35 33 32 31 30 29 28 26 25 26 29 32 35 37 37 36 35 35 36 37 38 39 40 40 40 39 39 39 38 36 36
46 47 47 47 46 45 45 43 40 37 35 36 35 34 32 32 31 30 28 26 25 27 30 33 35 36 36 35 36 37 38 39 41 41 41 40 39 39 38 37 36 35
47 47 48 48 47 47 46 45 43 41 37 35 36 37 35 33 33 32 30 28 26 26 27 29 31 32 32 33 34 35 37 39 40 41 41 40 39 38 37 36 35 34
48 47 48 49 48 48 47 46 45 44 41 37 35 37 37 36 35 34 32 29 27 26 26 26 28 29 29 29 31 32 34 36 38 39 39 38 38 37 36 34 34 33
48 48 48 49 49 48 47 47 46 45 44 40 37 36 37 38 37 36 35 31 28 27 27 26 27 27 28 28 29 30 32 34 36 37 37 37 36 35 34 33 33 32
Wind_Direction
278 279 277 278 279 277 274 272 271 270 269 269 272 273 271 269 270 271 271 269 267 267 266 265 263 261 257 255 256 256 254 253 252 252 251 251 251 252 254 255 254 254
270 273 274 275 275 275 275 274 273 274 273 271 270 273 273 273 274 273 272 271 268 268 269 266 262 260 258 254 253 253 252 252 251 251 252 252 252 251 253 255 256 256
259 261 264 267 270 272 274 275 276 275 275 273 271 270 271 273 275 272 271 274 272 272 274 269 261 260 259 254 251 250 251 251 251 251 251 252 253 253 254 255 254 255
257 257 257 258 262 268 272 272 272 273 273 272 271 271 270 268 267 267 269 274 276 277 277 271 265 265 263 256 251 249 250 251 249 249 249 250 252 254 254 254 253 254
259 260 259 257 259 265 270 269 265 267 269 269 269 270 269 265 264 264 266 271 275 273 273 271 269 269 264 256 252 249 248 250 248 247 247 249 251 253 253 253 253 254
265 260 257 258 259 261 266 266 264 265 266 267 269 268 266 264 264 263 263 266 267 263 264 268 268 268 263 256 252 249 248 249 248 246 246 247 249 250 251 251 252 253
296 276 262 258 258 258 260 260 261 264 264 265 268 268 266 262 259 259 259 257 255 254 260 265 264 263 261 256 252 249 248 249 248 247 246 246 247 247 247 248 250 251
334 310 284 266 260 259 258 257 257 259 261 265 266 265 266 263 256 255 255 252 251 255 261 264 261 259 257 254 252 250 248 248 248 248 247 246 246 245 245 246 247 249
348 336 317 290 272 264 260 258 257 256 258 262 263 262 265 265 259 258 259 258 258 259 261 261 259 256 254 252 252 250 249 249 249 249 249 247 246 246 245 245 247 249
350 345 337 321 300 284 271 264 260 258 257 258 259 260 262 263 261 261 263 263 263 262 262 260 257 254 251 249 250 250 250 250 250 251 250 248 247 247 247 246 247 250
348 345 342 337 325 309 294 281 270 262 259 257 257 259 261 261 261 261 261 262 263 264 264 261 257 253 250 248 249 250 250 250 251 252 251 249 248 248 248 248 248 250
345 343 341 339 335 326 314 302 289 274 264 258 256 257 258 259 259 259 258 258 260 262 264 261 258 254 250 249 249 250 250 250 250 250 250 249 248 248 249 248 248 250
344 342 339 337 336 332 325 316 306 291 275 263 259 257 256 255 256 257 257 257 258 260 261 260 259 256 252 250 249 248 248 248 249 249 249 249 249 249 248 247 247 249
340 340 338 334 332 331 328 322 314 305 292 275 264 259 257 256 256 256 256 257 257 258 258 259 259 257 253 250 248 247 246 246 247 248 248 249 249 248 247 246 247 249
335 336 336 334 330 328 327 325 320 313 305 291 274 263 259 258 256 256 256 256 255 256 257 257 256 254 251 249 248 246 245 245 245 246 247 248 247 247 246 246 248 249
332 331 332 333 331 328 325 324 322 319 314 305 291 274 264 261 258 256 254 254 253 254 254 253 252 250 248 247 246 246 245 245 246 246 247 247 247 246 247 247 249 249
329 328 328 329 330 328 325 322 320 320 318 314 307 293 276 265 260 257 254 253 253 253 252 250 249 247 247 247 246 245 246 246 247 247 247 247 247 247 248 249 248 247
326 325 325 326 326 326 325 322 319 317 317 316 312 306 294 276 264 259 257 255 254 254 251 249 248 247 247 248 247 245 246 246 247 247 247 247 247 247 247 248 246 245
324 323 322 322 322 323 323 321 319 316 315 316 314 309 302 290 277 268 263 259 257 256 254 252 249 247 246 246 245 244 244 244 245 246 246 246 245 244 243 243 244 243
322 321 320 319 319 320 320 319 319 316 314 314 313 310 306 299 291 281 271 265 262 259 256 254 251 248 246 245 245 244 243 242 242 243 243 241 240 239 239 239 240 240
320 319 318 317 317 317 317 317 317 315 313 312 311 310 309 305 298 290 280 272 266 261 257 254 250 248 246 245 244 243 241 239 238 237 237 236 235 235 235 235 235 235
319 317 315 315 315 315 315 315 315 314 312 310 307 306 307 306 301 295 287 278 270 263 258 254 250 248 246 243 242 241 238 236 235 235 234 233 233 232 232 232 231 232
318 316 314 313 313 313 312 312 313 312 311 310 306 302 303 305 305 300 291 283 275 266 260 256 252 249 247 244 242 240 238 237 235 233 233 231 231 230 230 230 231 231
317 315 314 312 312 311 310 309 309 309 309 310 306 301 299 301 304 302 293 286 280 271 263 258 254 250 246 243 240 238 237 236 234 232 231 229 228 228 229 229 230 231
316 314 312 312 311 310 309 307 306 306 306 307 306 300 295 294 298 300 295 288 282 276 267 259 255 252 247 242 237 233 232 232 231 230 229 228 228 227 227 228 229 231
315 313 311 310 309 309 308 305 303 303 303 303 304 300 294 289 290 293 294 290 285 278 270 261 254 251 249 247 242 235 231 231 231 231 230 229 227 227 227 229 231 233